Location: Newark
(45.9456°N, 15.4064°E)
Time: 23:32:21
(UTC+00:00)

Vanguard 3 - Pass Details

Date: 01 February 2020
Orbit: 508 x 3263 km, 33.3° (Epoch: 23 February)

Event Time Altitude Azimuth Distance (km) Brightness Sun altitude
Rises 13:46:34 0° 223° (SW) 5,935 13.3 17.9°
Reaches altitude 10° 13:50:22 10° 216° (SW) 5,246 13.9 17.5°
Maximum altitude 14:05:28 42° 153° (SSE) 4,018 11.1 15.7°
Drops below altitude 10° 14:23:01 10° 92° (E) 6,073 11.2 13.6°
Sets 14:27:48 0° 86° (E) 6,917 11.4 13.0°
